GXA109 KDCA-KBOS

Flight info

Callsign GXA109
Flight time 1h 2m
Altitude 37000
Route SOOKI6 SWANN BROSS Q419 JFK ROBUC3
Aircraft A320/M-SDE3FGHIRWY/LB1

Departure

Time 2026-05-05 23:52
Airport Ronald Reagan Washington National Airport (KDCA)

Arrival

Time 2026-05-06 00:54
Airport Boston Logan International Airport (KBOS)
Time Latitude Longitude Altitude Speed Heading
2026-05-05 23:10 38.85034 -77.04050 28 ft 0 kts 265°
2026-05-05 23:38 38.85034 -77.04040 24 ft 4 kts 265°
2026-05-05 23:39 38.85036 -77.04006 27 ft 3 kts 265°
2026-05-05 23:39 38.85037 -77.03980 28 ft 4 kts 291°
2026-05-05 23:39 38.85022 -77.03964 28 ft 3 kts 355°
2026-05-05 23:39 38.85005 -77.03962 25 ft 0 kts 355°
2026-05-05 23:46 38.85011 -77.03962 28 ft 2 kts 355°
2026-05-05 23:46 38.85094 -77.03969 24 ft 23 kts 356°
2026-05-05 23:46 38.85148 -77.03968 25 ft 1 kts 41°
2026-05-05 23:46 38.85148 -77.03963 26 ft 2 kts 69°
2026-05-05 23:47 38.85152 -77.03939 25 ft 2 kts 83°
2026-05-05 23:47 38.85177 -77.03920 24 ft 7 kts
2026-05-05 23:47 38.85224 -77.03922 24 ft 6 kts 355°
2026-05-05 23:47 38.85264 -77.03927 24 ft 5 kts 354°
2026-05-05 23:48 38.85299 -77.03931 24 ft 5 kts 354°
2026-05-05 23:48 38.85351 -77.03937 24 ft 15 kts 355°
2026-05-05 23:48 38.85456 -77.03947 24 ft 15 kts 355°
2026-05-05 23:48 38.85521 -77.03953 24 ft 13 kts 356°
2026-05-05 23:49 38.85605 -77.03985 25 ft 12 kts 324°
2026-05-05 23:49 38.85671 -77.04044 26 ft 11 kts 336°
2026-05-05 23:49 38.85739 -77.04052 27 ft 9 kts 355°
2026-05-05 23:49 38.85792 -77.04058 29 ft 7 kts 355°
2026-05-05 23:50 38.85838 -77.04063 27 ft 7 kts 356°
2026-05-05 23:50 38.85883 -77.04067 26 ft 6 kts 356°
2026-05-05 23:50 38.85926 -77.04047 25 ft 7 kts 45°
2026-05-05 23:50 38.85934 -77.04015 27 ft 1 kts 79°
2026-05-05 23:51 38.85910 -77.03906 28 ft 24 kts 116°
2026-05-05 23:51 38.85783 -77.03839 25 ft 38 kts 175°
2026-05-05 23:51 38.85200 -77.03782 25 ft 127 kts 175°
2026-05-05 23:51 38.84146 -77.03676 370 ft 169 kts 175°
2026-05-05 23:52 38.82872 -77.03545 992 ft 194 kts 176°
2026-05-05 23:52 38.81564 -77.03387 2334 ft 180 kts 179°
2026-05-05 23:52 38.80373 -77.03223 3725 ft 161 kts 181°
2026-05-05 23:52 38.79314 -77.03069 4633 ft 156 kts 182°
2026-05-05 23:53 38.78203 -77.02936 5053 ft 169 kts 182°
2026-05-05 23:53 38.76985 -77.02827 5579 ft 179 kts 186°
2026-05-05 23:53 38.75742 -77.03196 5872 ft 198 kts 203°
2026-05-05 23:53 38.74325 -77.03717 6135 ft 229 kts 188°
2026-05-05 23:54 38.72725 -77.03278 6380 ft 246 kts 159°
2026-05-05 23:54 38.71363 -77.01838 6618 ft 272 kts 132°
2026-05-05 23:54 38.70627 -76.99503 7299 ft 299 kts 100°
2026-05-05 23:54 38.70938 -76.96816 8119 ft 316 kts 67°
2026-05-05 23:55 38.72198 -76.94500 9023 ft 320 kts 49°
2026-05-05 23:55 38.73604 -76.92283 9971 ft 322 kts 50°
2026-05-05 23:55 38.75008 -76.89963 10472 ft 341 kts 51°
2026-05-05 23:55 38.76494 -76.87461 10742 ft 365 kts 51°
2026-05-05 23:56 38.78076 -76.84790 11018 ft 386 kts 51°
2026-05-05 23:56 38.79724 -76.82016 11619 ft 395 kts 51°
2026-05-05 23:56 38.81406 -76.79208 12365 ft 399 kts 51°
2026-05-05 23:56 38.83113 -76.76379 13113 ft 403 kts 50°
2026-05-05 23:57 38.84821 -76.73559 13842 ft 407 kts 50°
2026-05-05 23:57 38.86566 -76.70671 14477 ft 412 kts 50°
2026-05-05 23:57 38.88323 -76.67756 15118 ft 416 kts 51°
2026-05-05 23:57 38.90105 -76.64799 15752 ft 420 kts 51°
2026-05-05 23:58 38.91893 -76.61821 16381 ft 424 kts 51°
2026-05-05 23:58 38.93704 -76.58796 17009 ft 428 kts 51°
2026-05-05 23:58 38.95528 -76.55754 17644 ft 433 kts 51°
2026-05-05 23:58 38.97378 -76.52675 18263 ft 437 kts 51°
2026-05-05 23:59 38.99243 -76.49567 18793 ft 441 kts 52°
2026-05-05 23:59 39.01121 -76.46428 19330 ft 445 kts 52°
2026-05-05 23:59 39.03014 -76.43261 19852 ft 449 kts 52°
2026-05-05 23:59 39.04926 -76.40059 20372 ft 453 kts 52°
2026-05-06 00:00 39.06850 -76.36837 20867 ft 457 kts 52°
2026-05-06 00:00 39.08796 -76.33572 21380 ft 460 kts 52°
2026-05-06 00:00 39.10753 -76.30287 21861 ft 464 kts 52°
2026-05-06 00:00 39.12679 -76.26944 22328 ft 468 kts 56°
2026-05-06 00:01 39.14512 -76.23465 22805 ft 470 kts 55°
2026-05-06 00:01 39.16398 -76.20004 23279 ft 473 kts 55°
2026-05-06 00:01 39.18302 -76.16523 23667 ft 477 kts 54°
2026-05-06 00:01 39.20216 -76.13018 24048 ft 479 kts 54°
2026-05-06 00:02 39.22128 -76.09501 24481 ft 479 kts 54°
2026-05-06 00:02 39.24040 -76.05970 24879 ft 481 kts 54°
2026-05-06 00:02 39.25948 -76.02430 25264 ft 482 kts 54°
2026-05-06 00:02 39.27860 -75.98864 25625 ft 484 kts 54°
2026-05-06 00:03 39.29773 -75.95280 25986 ft 486 kts 54°
2026-05-06 00:03 39.31688 -75.91676 26339 ft 487 kts 54°
2026-05-06 00:03 39.33601 -75.88063 26687 ft 489 kts 54°
2026-05-06 00:03 39.35498 -75.84468 27015 ft 490 kts 54°
2026-05-06 00:04 39.37438 -75.80776 27351 ft 492 kts 54°
2026-05-06 00:04 39.39335 -75.77156 27650 ft 494 kts 54°
2026-05-06 00:04 39.41250 -75.73464 27962 ft 495 kts 54°
2026-05-06 00:04 39.43161 -75.69754 28243 ft 496 kts 54°
2026-05-06 00:05 39.46988 -75.62292 28776 ft 499 kts 54°
2026-05-06 00:05 39.48905 -75.58539 28991 ft 500 kts 54°
2026-05-06 00:05 39.50820 -75.54781 29312 ft 499 kts 54°
2026-05-06 00:06 39.52727 -75.51026 29651 ft 498 kts 54°
2026-05-06 00:06 39.54626 -75.47276 29987 ft 497 kts 54°
2026-05-06 00:06 39.56516 -75.43528 30284 ft 496 kts 54°
2026-05-06 00:06 39.58392 -75.39784 30553 ft 495 kts 54°
2026-05-06 00:07 39.60257 -75.36033 30843 ft 494 kts 54°
2026-05-06 00:07 39.62085 -75.32332 31134 ft 493 kts 54°
2026-05-06 00:07 39.63924 -75.28582 31424 ft 492 kts 54°
2026-05-06 00:07 39.65751 -75.24830 31729 ft 491 kts 54°
2026-05-06 00:08 39.67567 -75.21077 32023 ft 490 kts 54°
2026-05-06 00:08 39.69371 -75.17323 32305 ft 490 kts 54°
2026-05-06 00:08 39.71165 -75.13566 32593 ft 489 kts 54°
2026-05-06 00:08 39.72943 -75.09817 32884 ft 488 kts 54°
2026-05-06 00:09 39.74718 -75.06050 33179 ft 487 kts 54°
2026-05-06 00:09 39.76470 -75.02304 33525 ft 485 kts 54°
2026-05-06 00:09 39.78203 -74.98563 33896 ft 482 kts 54°
2026-05-06 00:09 39.79924 -74.94818 34174 ft 481 kts 54°
2026-05-06 00:10 39.81634 -74.91093 34421 ft 480 kts 54°
2026-05-06 00:10 39.83345 -74.87370 34684 ft 479 kts 54°
2026-05-06 00:10 39.85070 -74.83663 34875 ft 477 kts 51°
2026-05-06 00:10 39.87164 -74.80392 34925 ft 465 kts 36°
2026-05-06 00:11 39.89697 -74.77843 34932 ft 459 kts 29°
2026-05-06 00:11 39.94879 -74.73064 34924 ft 460 kts 29°
2026-05-06 00:12 40.00109 -74.68246 34923 ft 460 kts 29°
2026-05-06 00:12 40.05340 -74.63400 34923 ft 461 kts 29°
2026-05-06 00:13 40.10554 -74.58546 34902 ft 461 kts 29°
2026-05-06 00:13 40.15778 -74.53676 34887 ft 461 kts 29°
2026-05-06 00:14 40.20999 -74.48787 34891 ft 462 kts 30°
2026-05-06 00:14 40.26062 -74.43552 34911 ft 465 kts 34°
2026-05-06 00:15 40.31015 -74.38085 34910 ft 466 kts 34°
2026-05-06 00:15 40.35993 -74.32629 34915 ft 466 kts 34°
2026-05-06 00:16 40.40925 -74.27096 34880 ft 472 kts 43°
2026-05-06 00:16 40.44857 -74.20171 34882 ft 478 kts 49°
2026-05-06 00:17 40.48721 -74.13064 34877 ft 479 kts 50°
2026-05-06 00:17 40.52582 -74.05916 34900 ft 480 kts 50°
2026-05-06 00:18 40.56449 -73.98745 34900 ft 480 kts 50°
2026-05-06 00:18 40.60308 -73.91611 34913 ft 478 kts 50°
2026-05-06 00:19 40.64165 -73.84482 34674 ft 478 kts 50°
2026-05-06 00:19 40.66096 -73.80907 34432 ft 480 kts 50°
2026-05-06 00:19 40.68025 -73.77328 34192 ft 481 kts 50°
2026-05-06 00:19 40.69959 -73.73729 33954 ft 482 kts 50°
2026-05-06 00:20 40.71892 -73.70118 33688 ft 483 kts 50°
2026-05-06 00:20 40.73827 -73.66497 33408 ft 483 kts 50°
2026-05-06 00:20 40.75757 -73.62879 33110 ft 482 kts 50°
2026-05-06 00:20 40.77692 -73.59252 32057 ft 485 kts 50°
2026-05-06 00:21 40.79650 -73.55589 30812 ft 491 kts 51°
2026-05-06 00:21 40.81624 -73.51894 29589 ft 496 kts 52°
2026-05-06 00:21 40.83620 -73.48152 28200 ft 500 kts 52°
2026-05-06 00:21 40.85654 -73.44446 27401 ft 497 kts 48°
2026-05-06 00:22 40.87941 -73.41029 27056 ft 496 kts 45°
2026-05-06 00:22 40.90219 -73.37683 26012 ft 496 kts 46°
2026-05-06 00:22 40.92522 -73.34274 25529 ft 498 kts 46°
2026-05-06 00:22 40.94827 -73.30848 25285 ft 499 kts 46°
2026-05-06 00:23 40.97133 -73.27417 25047 ft 498 kts 46°
2026-05-06 00:23 40.99430 -73.24004 24807 ft 496 kts 46°
2026-05-06 00:23 41.01717 -73.20602 24583 ft 494 kts 46°
2026-05-06 00:23 41.03998 -73.17204 24339 ft 493 kts 46°
2026-05-06 00:24 41.06273 -73.13817 24104 ft 491 kts 46°
2026-05-06 00:24 41.08543 -73.10439 23886 ft 490 kts 46°
2026-05-06 00:24 41.10808 -73.07070 23671 ft 489 kts 46°
2026-05-06 00:24 41.13065 -73.03708 23432 ft 487 kts 46°
2026-05-06 00:25 41.15310 -73.00348 23182 ft 486 kts 46°
2026-05-06 00:25 41.17554 -72.96983 22986 ft 485 kts 46°
2026-05-06 00:25 41.19775 -72.93619 23033 ft 486 kts 49°
2026-05-06 00:25 41.21700 -72.89989 23034 ft 487 kts 58°
2026-05-06 00:26 41.23304 -72.85963 23032 ft 488 kts 62°
2026-05-06 00:26 41.24820 -72.82000 23036 ft 487 kts 62°
2026-05-06 00:26 41.26354 -72.77983 23037 ft 487 kts 62°
2026-05-06 00:26 41.27887 -72.73965 23037 ft 487 kts 62°
2026-05-06 00:27 41.29419 -72.69944 23037 ft 487 kts 62°
2026-05-06 00:27 41.30950 -72.65916 23057 ft 489 kts 62°
2026-05-06 00:27 41.32488 -72.61877 23061 ft 490 kts 62°
2026-05-06 00:27 41.34025 -72.57830 23058 ft 490 kts 62°
2026-05-06 00:28 41.35558 -72.53782 23063 ft 490 kts 62°
2026-05-06 00:28 41.37093 -72.49725 23064 ft 490 kts 62°
2026-05-06 00:28 41.38623 -72.45685 23062 ft 489 kts 62°
2026-05-06 00:28 41.40159 -72.41628 23064 ft 489 kts 62°
2026-05-06 00:29 41.41694 -72.37580 23062 ft 489 kts 62°
2026-05-06 00:29 41.43224 -72.33530 23058 ft 489 kts 62°
2026-05-06 00:29 41.44745 -72.29482 23055 ft 489 kts 62°
2026-05-06 00:29 41.46245 -72.25470 23050 ft 489 kts 62°
2026-05-06 00:30 41.47766 -72.21407 23044 ft 490 kts 62°
2026-05-06 00:30 41.49282 -72.17334 23038 ft 490 kts 62°
2026-05-06 00:30 41.50787 -72.13250 23040 ft 490 kts 62°
2026-05-06 00:30 41.52282 -72.09159 23049 ft 490 kts 62°
2026-05-06 00:31 41.53771 -72.05062 23045 ft 491 kts 62°
2026-05-06 00:31 41.55258 -72.00962 23047 ft 491 kts 63°
2026-05-06 00:31 41.56689 -71.96823 23055 ft 491 kts 65°
2026-05-06 00:31 41.58021 -71.92618 22479 ft 491 kts 66°
2026-05-06 00:32 41.59283 -71.88351 21061 ft 497 kts 68°
2026-05-06 00:32 41.60499 -71.84046 20206 ft 491 kts 69°
2026-05-06 00:32 41.61669 -71.79852 19947 ft 474 kts 69°
2026-05-06 00:32 41.62811 -71.75804 19694 ft 457 kts 69°
2026-05-06 00:33 41.63921 -71.71950 19467 ft 443 kts 68°
2026-05-06 00:33 41.65030 -71.68165 19230 ft 431 kts 68°
2026-05-06 00:33 41.66117 -71.64487 18994 ft 420 kts 68°
2026-05-06 00:33 41.67178 -71.60905 18760 ft 409 kts 68°
2026-05-06 00:34 41.68212 -71.57411 18525 ft 399 kts 68°
2026-05-06 00:34 41.69222 -71.54000 18282 ft 390 kts 68°
2026-05-06 00:34 41.70200 -71.50674 18088 ft 379 kts 69°
2026-05-06 00:34 41.71154 -71.47409 17699 ft 375 kts 69°
2026-05-06 00:35 41.72104 -71.44156 17231 ft 374 kts 68°
2026-05-06 00:35 41.73275 -71.41072 16790 ft 372 kts 59°
2026-05-06 00:35 41.74556 -71.38076 16369 ft 370 kts 59°
2026-05-06 00:35 41.75834 -71.35094 15961 ft 368 kts 59°
2026-05-06 00:36 41.77104 -71.32134 15568 ft 365 kts 59°
2026-05-06 00:36 41.78365 -71.29189 15175 ft 363 kts 59°
2026-05-06 00:36 41.79617 -71.26258 14787 ft 361 kts 59°
2026-05-06 00:36 41.80863 -71.23340 14450 ft 358 kts 59°
2026-05-06 00:37 41.82078 -71.20483 14272 ft 350 kts 59°
2026-05-06 00:37 41.83272 -71.17664 13974 ft 346 kts 59°
2026-05-06 00:37 41.84450 -71.14882 13381 ft 341 kts 59°
2026-05-06 00:37 41.85617 -71.12127 12694 ft 338 kts 59°
2026-05-06 00:38 41.86767 -71.09436 11999 ft 336 kts 59°
2026-05-06 00:38 41.87925 -71.06755 11628 ft 328 kts 59°
2026-05-06 00:38 41.89077 -71.04102 11554 ft 329 kts 59°
2026-05-06 00:38 41.90233 -71.01438 11450 ft 330 kts 59°
2026-05-06 00:39 41.91387 -70.98775 11308 ft 330 kts 59°
2026-05-06 00:39 41.92537 -70.96118 11160 ft 329 kts 59°
2026-05-06 00:39 41.93679 -70.93463 11017 ft 328 kts 59°
2026-05-06 00:39 41.94815 -70.90813 10858 ft 327 kts 59°
2026-05-06 00:40 41.95950 -70.88167 10718 ft 326 kts 59°
2026-05-06 00:40 41.97085 -70.85521 10567 ft 326 kts 59°
2026-05-06 00:40 41.98219 -70.82882 10428 ft 326 kts 59°
2026-05-06 00:40 41.99349 -70.80248 10281 ft 325 kts 59°
2026-05-06 00:41 42.00464 -70.77655 10143 ft 324 kts 59°
2026-05-06 00:41 42.01771 -70.75204 9927 ft 322 kts 46°
2026-05-06 00:41 42.03263 -70.72966 9576 ft 320 kts 46°
2026-05-06 00:41 42.04751 -70.70745 9274 ft 319 kts 46°
2026-05-06 00:42 42.06236 -70.68527 8966 ft 319 kts 46°
2026-05-06 00:42 42.07718 -70.66307 8671 ft 318 kts 46°
2026-05-06 00:42 42.09197 -70.64102 8372 ft 317 kts 44°
2026-05-06 00:42 42.10896 -70.62263 8065 ft 312 kts 27°
2026-05-06 00:43 42.12852 -70.61092 7779 ft 305 kts 11°
2026-05-06 00:43 42.14908 -70.60490 7495 ft 302 kts
2026-05-06 00:43 42.16964 -70.59927 7221 ft 301 kts
2026-05-06 00:43 42.19012 -70.59356 6903 ft 300 kts
2026-05-06 00:44 42.21058 -70.58786 6615 ft 299 kts
2026-05-06 00:44 42.23065 -70.58225 6335 ft 299 kts
2026-05-06 00:44 42.25097 -70.57654 6020 ft 298 kts
2026-05-06 00:44 42.27121 -70.57083 5748 ft 297 kts
2026-05-06 00:45 42.29142 -70.56516 5464 ft 296 kts
2026-05-06 00:45 42.31156 -70.56309 5187 ft 285 kts 346°
2026-05-06 00:45 42.33022 -70.56936 5013 ft 271 kts 328°
2026-05-06 00:45 42.34591 -70.58222 5008 ft 260 kts 311°
2026-05-06 00:46 42.35891 -70.59891 5032 ft 258 kts 307°
2026-05-06 00:46 42.37177 -70.61579 5006 ft 257 kts 307°
2026-05-06 00:46 42.38028 -70.62692 5002 ft 257 kts 307°
2026-05-06 00:46 42.39311 -70.64370 5001 ft 257 kts 307°
2026-05-06 00:47 42.40590 -70.66049 4997 ft 256 kts 307°
2026-05-06 00:47 42.41869 -70.67731 4991 ft 256 kts 307°
2026-05-06 00:47 42.43557 -70.69950 4990 ft 255 kts 307°
2026-05-06 00:47 42.44418 -70.71079 4991 ft 256 kts 307°
2026-05-06 00:48 42.45692 -70.72760 4990 ft 256 kts 307°
2026-05-06 00:48 42.46968 -70.74445 4987 ft 256 kts 307°
2026-05-06 00:48 42.48244 -70.76132 4987 ft 256 kts 307°
2026-05-06 00:48 42.49251 -70.78019 4701 ft 242 kts 289°
2026-05-06 00:49 42.49941 -70.80088 4222 ft 240 kts 286°
2026-05-06 00:49 42.50583 -70.82166 3794 ft 238 kts 286°
2026-05-06 00:49 42.51221 -70.84230 3359 ft 237 kts 285°
2026-05-06 00:49 42.51613 -70.86301 2934 ft 225 kts 264°
2026-05-06 00:50 42.51183 -70.88252 2544 ft 216 kts 239°
2026-05-06 00:50 42.50395 -70.89966 2174 ft 212 kts 236°
2026-05-06 00:50 42.49590 -70.91634 1984 ft 212 kts 236°
2026-05-06 00:50 42.48790 -70.93302 1982 ft 207 kts 236°
2026-05-06 00:51 42.47909 -70.94701 1987 ft 187 kts 220°
2026-05-06 00:51 42.46817 -70.95504 1978 ft 174 kts 206°
2026-05-06 00:51 42.45707 -70.96038 1766 ft 162 kts 204°
2026-05-06 00:51 42.44698 -70.96526 1556 ft 146 kts 205°
2026-05-06 00:52 42.43784 -70.96969 1345 ft 134 kts 204°
2026-05-06 00:52 42.42929 -70.97385 1178 ft 128 kts 204°
2026-05-06 00:52 42.42105 -70.97786 1002 ft 124 kts 204°
2026-05-06 00:52 42.41301 -70.98177 853 ft 123 kts 202°
2026-05-06 00:53 42.40486 -70.98572 693 ft 125 kts 201°
2026-05-06 00:53 42.39676 -70.98965 548 ft 123 kts 201°
2026-05-06 00:53 42.38867 -70.99357 387 ft 122 kts 199°
2026-05-06 00:53 42.38075 -70.99741 238 ft 120 kts 198°
2026-05-06 00:54 42.37312 -71.00113 67 ft 120 kts 199°
2026-05-06 00:54 42.36577 -71.00474 27 ft 99 kts 199°
2026-05-06 00:54 42.36135 -71.00683 28 ft 33 kts 200°
2026-05-06 00:54 42.35967 -71.00838 30 ft 28 kts 231°
2026-05-06 00:55 42.35849 -71.01024 26 ft 18 kts 234°
2026-05-06 00:55 42.35838 -71.01172 26 ft 17 kts 279°
2026-05-06 00:55 42.35848 -71.01278 28 ft 0 kts 277°
2026-05-06 00:55 42.35850 -71.01290 28 ft 8 kts 277°
2026-05-06 00:56 42.35866 -71.01439 27 ft 19 kts 282°
2026-05-06 00:56 42.35886 -71.01567 26 ft 13 kts 281°